Torna al catalogo

COSMOS 970 DEB

AttivoLEO
NORAD 64985·DEBRIS·🇷🇺 Russia

Lanciato Dec 21, 1977 da Baikonur Cosmodrome

Loading…

Prossimi Passaggi (prossime 24 ore)

TLE

ObsoletoSource: Space-Track

Epoca: Sep 2, 2026, 08:05 UTC

1 64985U 77121CW  26245.33696906  .00000025  00000-0  14041-3 0  9991
2 64985  65.8517  92.9097 0101244 231.2022 304.6471 13.55881899127121

Traccia COSMOS 970 DEB in tempo reale con AllMySat

Download on the App Store